User: anonymous   Login
Location: Pacheco
(37.9835°N, 122.0752°W)
Time: 21:37:11
(UTC+00:00)
Language:

ARIANE 5 R/B - Orbit

View from above orbital plane
View from above orbital plane
View from above satellite
View from above satellite

Ground track
Ground track

The orbit data is extracted from the following two-line orbital elements,

1 27387U 02009B   24165.60347737  .00000170  00000-0  73136-4 0  9995
2 27387  98.7976 155.6305 0033134 129.9553 230.4551 14.36401176167982
Epoch (UTC): 13 June 2024 14:29:00
Eccentricity: 0.0033134
inclination: 98.7976°
perigee height: 747 km
apogee height: 794 km
right ascension of ascending node: 155.6305°
argument of perigee: 129.9553°
revolutions per day: 14.36401176
mean anomaly at epoch: 230.4551°
orbit number at epoch: 16798

The dashed part of the orbit path shows where the satellite is in the earth's shadow,  

DLR